Starlink 31243

operational
NORAD ID: 58894 Int'l Des: 2024-020 Owner: SPXS Country: US Constellation: starlink
LEOCIRCULAR

Über Starlink 31243

Beschreibung wird geladen...

Live-Position

3D-Globus wird geladen...

Nächste Überflüge

Höhenverlauf

Altitude vs Time

uPlot chart will show altitude changes over time

Zweizeiliger Elementsatz

1 58894U 24020U 25259.13039679 .00000070 00000-0 14478-4 0 9998
2 58894 53.1605 53.3457 0001014 87.7184 272.3933 15.30191363 91342
Epoch: 16. Sept. 2025 • Age: 15 hours

Aktueller Status

Höhe 485.1 km
Geschwindigkeit 7.62 km/s
Subsatellitenpunkt -30.68°S, 12.16°W
Startdatum 29. Jan. 2024
Alter 1.6 years
Typ internet

Technische Details

Klassifizierung Payload
Masse 730.00 kg
Trockenmasse 700.00 kg
Gesamtmasse 730.00 kg
Länge 0.30 m
Durchmesser 4.10 m
Spannweite 29.00 m
Form Box + pan
Hersteller SPXS
Bus-Typ Starlink V2M
Phasenstatus In Orbit
Besitzer/Staat SPXS/US

Große Konstellationen

Loading constellations...